Find Starlink 31936

NORAD ID: 59875 Int'l Des: 2024-098 Owner: SPXS Country: US Constellation: starlink operational
LEOCIRCULAR

Live-Position

3D-Globus wird geladen...

Über Starlink 31936

Beschreibung wird geladen...

Nächste Überflüge

Passes for default location (London). Set your location on the main map for personalized predictions.

Höhenverlauf

Loading altitude history...

Zweizeiliger Elementsatz

1 59875U 24098T 26124.83579961 .00000890 00000-0 41855-4 0 9994
2 59875 43.0039 288.5813 0001185 270.6059 89.4657 15.27574148110795
Epoch: 4. Mai 2026 • Age: 18 hours

Aktueller Status

Höhe 495.3 km
Geschwindigkeit 7.62 km/s
Subsatellitenpunkt -42.49°S, 125.09°E
Startdatum 24. Mai 2024
Alter 1.9 years
Typ internet

Technische Details

Klassifizierung Payload
Masse 730.00 kg
Trockenmasse 700.00 kg
Gesamtmasse 730.00 kg
Länge 0.30 m
Durchmesser 4.10 m
Spannweite 29.00 m
Form Box + pan
Hersteller SPXS
Bus-Typ Starlink V2M
Phasenstatus In Orbit
Besitzer/Staat SPXS/US

Most Searched